TimePDT,TemperatureF,Dew PointF,Humidity,Sea Level PressureIn,VisibilityMPH,Wind Direction,Wind SpeedMPH,Gust SpeedMPH,PrecipitationIn,Events,Conditions,WindDirDegrees,DateUTC
12:15 AM,51.8,50.0,94,30.10,10.0,Calm,Calm,-,N/A,,Clear,0,2013-06-16 07:15:00
12:35 AM,51.8,48.2,88,30.10,10.0,Calm,Calm,-,N/A,,Clear,0,2013-06-16 07:35:00
12:55 AM,50.0,48.2,94,30.09,10.0,South,3.5,-,N/A,,Clear,170,2013-06-16 07:55:00
1:15 AM,50.0,48.2,94,30.09,10.0,South,3.5,-,N/A,,Clear,180,2013-06-16 08:15:00
1:35 AM,50.0,48.2,94,30.09,10.0,South,3.5,-,N/A,,Clear,190,2013-06-16 08:35:00
1:55 AM,50.0,48.2,94,30.09,10.0,South,3.5,-,N/A,,Clear,180,2013-06-16 08:55:00
2:15 AM,50.0,48.2,94,30.10,10.0,South,3.5,-,N/A,,Clear,180,2013-06-16 09:15:00
2:35 AM,48.2,48.2,100,30.10,10.0,Calm,Calm,-,N/A,,Clear,0,2013-06-16 09:35:00
2:55 AM,48.2,46.4,93,30.10,10.0,South,3.5,-,N/A,,Clear,170,2013-06-16 09:55:00
3:15 AM,48.2,46.4,93,30.10,10.0,South,3.5,-,N/A,,Partly Cloudy,170,2013-06-16 10:15:00
3:35 AM,48.2,46.4,93,30.10,10.0,SE,4.6,-,N/A,,Mostly Cloudy,140,2013-06-16 10:35:00
3:55 AM,50.0,50.0,100,30.10,10.0,Calm,Calm,-,N/A,,Overcast,0,2013-06-16 10:55:00
4:15 AM,51.8,51.8,100,30.10,10.0,Calm,Calm,-,N/A,,Overcast,0,2013-06-16 11:15:00
4:35 AM,51.8,51.8,100,30.10,10.0,SSE,3.5,-,N/A,,Overcast,160,2013-06-16 11:35:00
4:55 AM,51.8,51.8,100,30.10,10.0,Calm,Calm,-,N/A,,Overcast,0,2013-06-16 11:55:00
5:15 AM,51.8,50.0,94,30.10,10.0,Calm,Calm,-,N/A,,Overcast,0,2013-06-16 12:15:00
5:35 AM,50.0,50.0,100,30.10,10.0,SSE,3.5,-,N/A,,Overcast,150,2013-06-16 12:35:00
5:55 AM,50.0,50.0,100,30.10,10.0,South,3.5,-,N/A,,Mostly Cloudy,170,2013-06-16 12:55:00
6:15 AM,50.0,50.0,100,30.11,10.0,SSE,4.6,-,N/A,,Mostly Cloudy,160,2013-06-16 13:15:00
6:35 AM,50.0,50.0,100,30.11,10.0,South,4.6,-,N/A,,Mostly Cloudy,170,2013-06-16 13:35:00
6:55 AM,50.0,50.0,100,30.12,10.0,Calm,Calm,-,N/A,,Mostly Cloudy,0,2013-06-16 13:55:00
7:15 AM,51.8,51.8,100,30.12,10.0,SSE,3.5,-,N/A,,Scattered Clouds,160,2013-06-16 14:15:00
7:35 AM,51.8,51.8,100,30.11,10.0,SE,4.6,-,N/A,,Scattered Clouds,140,2013-06-16 14:35:00
7:55 AM,53.6,51.8,94,30.11,10.0,SSE,3.5,-,N/A,,Clear,150,2013-06-16 14:55:00
8:15 AM,55.4,53.6,94,30.11,10.0,SE,4.6,-,N/A,,Clear,140,2013-06-16 15:15:00
8:35 AM,57.2,53.6,88,30.12,10.0,Calm,Calm,-,N/A,,Clear,0,2013-06-16 15:35:00
8:55 AM,57.2,51.8,82,30.13,10.0,North,4.6,-,N/A,,Scattered Clouds,360,2013-06-16 15:55:00
9:15 AM,57.2,51.8,82,30.13,10.0,NW,4.6,-,N/A,,Overcast,320,2013-06-16 16:15:00
9:35 AM,57.2,51.8,82,30.13,10.0,WNW,6.9,-,N/A,,Scattered Clouds,300,2013-06-16 16:35:00
9:55 AM,55.4,51.8,88,30.14,10.0,WNW,11.5,-,N/A,,Mostly Cloudy,290,2013-06-16 16:55:00
10:15 AM,57.2,51.8,82,30.14,10.0,WNW,9.2,-,N/A,,Overcast,290,2013-06-16 17:15:00
10:35 AM,57.2,51.8,82,30.14,10.0,West,8.1,-,N/A,,Overcast,270,2013-06-16 17:35:00
10:55 AM,59.0,51.8,77,30.15,10.0,WNW,9.2,-,N/A,,Overcast,290,2013-06-16 17:55:00
11:15 AM,59.0,51.8,77,30.15,10.0,WNW,8.1,-,N/A,,Overcast,290,2013-06-16 18:15:00
11:35 AM,60.8,51.8,72,30.15,10.0,WNW,10.4,-,N/A,,Overcast,290,2013-06-16 18:35:00
11:55 AM,59.0,51.8,77,30.15,10.0,NW,8.1,-,N/A,,Mostly Cloudy,310,2013-06-16 18:55:00
12:15 PM,59.0,51.8,77,30.15,10.0,NW,6.9,-,N/A,,Clear,320,2013-06-16 19:15:00
12:35 PM,59.0,51.8,77,30.15,10.0,NNW,5.8,-,N/A,,Clear,330,2013-06-16 19:35:00
12:55 PM,60.8,51.8,72,30.15,10.0,NW,8.1,-,N/A,,Clear,310,2013-06-16 19:55:00
1:15 PM,59.0,51.8,77,30.15,10.0,WNW,9.2,-,N/A,,Clear,300,2013-06-16 20:15:00
1:35 PM,60.8,51.8,72,30.16,10.0,NW,11.5,-,N/A,,Clear,310,2013-06-16 20:35:00
1:55 PM,60.8,51.8,72,30.16,10.0,WNW,10.4,-,N/A,,Clear,300,2013-06-16 20:55:00
2:15 PM,60.8,51.8,72,30.16,10.0,WNW,10.4,-,N/A,,Clear,300,2013-06-16 21:15:00
2:35 PM,60.8,51.8,72,30.16,10.0,NW,10.4,-,N/A,,Mostly Cloudy,310,2013-06-16 21:35:00
2:55 PM,60.8,53.6,77,30.16,10.0,West,12.7,-,N/A,,Overcast,280,2013-06-16 21:55:00
3:15 PM,62.6,53.6,72,30.16,10.0,West,11.5,-,N/A,,Scattered Clouds,270,2013-06-16 22:15:00
3:35 PM,60.8,53.6,77,30.17,10.0,West,13.8,-,N/A,,Clear,280,2013-06-16 22:35:00
3:55 PM,60.8,55.4,82,30.16,10.0,West,12.7,-,N/A,,Clear,270,2013-06-16 22:55:00
4:15 PM,60.8,53.6,77,30.17,10.0,West,13.8,-,N/A,,Clear,280,2013-06-16 23:15:00
4:35 PM,59.0,53.6,82,30.17,10.0,WNW,8.1,-,N/A,,Mostly Cloudy,300,2013-06-16 23:35:00
4:55 PM,57.2,53.6,88,30.17,10.0,NW,10.4,-,N/A,,Overcast,310,2013-06-16 23:55:00
5:15 PM,59.0,53.6,82,30.16,10.0,WNW,9.2,-,N/A,,Overcast,300,2013-06-17 00:15:00
5:35 PM,59.0,55.4,88,30.17,10.0,WNW,11.5,-,N/A,,Overcast,290,2013-06-17 00:35:00
5:55 PM,59.0,53.6,82,30.17,10.0,West,8.1,-,N/A,,Overcast,270,2013-06-17 00:55:00
6:15 PM,59.0,53.6,82,30.17,10.0,West,6.9,-,N/A,,Overcast,260,2013-06-17 01:15:00
6:35 PM,59.0,53.6,82,30.17,10.0,West,9.2,-,N/A,,Mostly Cloudy,260,2013-06-17 01:35:00
6:55 PM,59.0,53.6,82,30.17,10.0,SW,3.5,-,N/A,,Overcast,220,2013-06-17 01:55:00
7:15 PM,59.0,53.6,82,30.18,10.0,WSW,4.6,-,N/A,,Overcast,250,2013-06-17 02:15:00
7:35 PM,57.2,53.6,88,30.18,10.0,WSW,5.8,-,N/A,,Overcast,250,2013-06-17 02:35:00
7:55 PM,57.2,53.6,88,30.18,10.0,SW,8.1,-,N/A,,Overcast,230,2013-06-17 02:55:00
8:15 PM,57.2,53.6,88,30.18,10.0,WSW,3.5,-,N/A,,Overcast,240,2013-06-17 03:15:00
8:35 PM,57.2,53.6,88,30.18,10.0,SSW,4.6,-,N/A,,Overcast,210,2013-06-17 03:35:00
8:55 PM,57.2,53.6,88,30.18,10.0,South,4.6,-,N/A,,Overcast,190,2013-06-17 03:55:00
9:15 PM,57.2,53.6,88,30.18,10.0,Calm,Calm,-,N/A,,Overcast,0,2013-06-17 04:15:00
9:35 PM,57.2,53.6,88,30.17,10.0,SW,4.6,-,N/A,,Mostly Cloudy,230,2013-06-17 04:35:00
9:55 PM,55.4,53.6,94,30.17,10.0,SSW,3.5,-,N/A,,Partly Cloudy,210,2013-06-17 04:55:00
10:15 PM,55.4,53.6,94,30.18,10.0,SSW,3.5,-,N/A,,Scattered Clouds,210,2013-06-17 05:15:00
10:35 PM,55.4,53.6,94,30.17,10.0,South,3.5,-,N/A,,Partly Cloudy,180,2013-06-17 05:35:00
10:55 PM,55.4,53.6,94,30.17,10.0,Calm,Calm,-,N/A,,Clear,0,2013-06-17 05:55:00
11:15 PM,55.4,53.6,94,30.16,10.0,Calm,Calm,-,N/A,,Clear,0,2013-06-17 06:15:00
11:35 PM,55.4,53.6,94,30.16,10.0,Calm,Calm,-,N/A,,Clear,0,2013-06-17 06:35:00
11:55 PM,55.4,53.6,94,30.16,10.0,ESE,3.5,-,N/A,,Clear,120,2013-06-17 06:55:00